This is the latest recevied weather packets stored in our database for station/object KO6HRZ. If no packets are shown the sender has not sent any weather packets the latest 10 day(s).
| Time | Temp. | Humidity | Pressure | Rain* | Wind** | Luminosity | Snow |
|---|---|---|---|---|---|---|---|
| 1788136577 | 32.78° C | 33% | 1008.1 hPa | 0 mm | - | 252 W/m² | - |
| 1788135977 | 33.33° C | 35% | 1007.9 hPa | 0 mm | - | 275 W/m² | - |
| 1788135373 | 33.33° C | 34% | 1008 hPa | 0 mm | - | 191 W/m² | - |
| 1788134772 | 33.33° C | 35% | 1008.3 hPa | 0 mm | - | 85 W/m² | - |
| 1788134170 | 33.89° C | 33% | 1008.2 hPa | 0 mm | - | 53 W/m² | - |
| 1788133566 | 33.89° C | 32% | 1008.2 hPa | 0 mm | - | 54 W/m² | - |
| 1788132962 | 34.44° C | 33% | 1008.4 hPa | 0 mm | - | 397 W/m² | - |
| 1788132359 | 35° C | 30% | 1008.5 hPa | 0 mm | - | 167 W/m² | - |
| 1788131757 | 34.44° C | 29% | 1008.4 hPa | 0 mm | - | 116 W/m² | - |
| 1788131151 | 33.33° C | 33% | 1008.7 hPa | 0 mm | - | 444 W/m² | - |
| 1788130547 | 33.89° C | 33% | 1008.8 hPa | 0 mm | - | 573 W/m² | - |
| 1788129945 | 33.89° C | 36% | 1008.7 hPa | 0 mm | - | 602 W/m² | - |
| 1788129345 | 33.89° C | 33% | 1009 hPa | 0 mm | - | 630 W/m² | - |
| 1788128745 | 33.89° C | 36% | 1009.1 hPa | 0 mm | - | 649 W/m² | - |
| 1788128143 | 33.89° C | 35% | 1009.3 hPa | 0 mm | - | 667 W/m² | - |
| 1788127538 | 33.89° C | 34% | 1009.5 hPa | 0 mm | - | 685 W/m² | - |
| 1788126937 | 32.22° C | 38% | 1009.8 hPa | 0 mm | - | 700 W/m² | - |
| 1788126333 | 32.78° C | 38% | 1009.9 hPa | 0 mm | - | 708 W/m² | - |
| 1788125733 | 32.22° C | 40% | 1010 hPa | 0 mm | - | 713 W/m² | - |
| 1788125131 | 31.67° C | 41% | 1009.9 hPa | 0 mm | - | 717 W/m² | - |
| 1788124526 | 32.22° C | 41% | 1010.3 hPa | 0 mm | - | 723 W/m² | - |
| 1788123927 | 31.67° C | 41% | 1010.4 hPa | 0 mm | - | 729 W/m² | - |
| 1788123324 | 31.11° C | 43% | 1010.4 hPa | 0 mm | - | 730 W/m² | - |
| 1788122718 | 30° C | 43% | 1010.6 hPa | 0 mm | - | 733 W/m² | - |
| 1788122115 | 30° C | 45% | 1010.6 hPa | 0 mm | - | 732 W/m² | - |
* Rain latest hour (hover to see other rain measurements)
** Current wind speed in m/s (hover to see current wind gust speed)